Starlink 31346

operational
NORAD ID: 58943 Int'l Des: 2024-027 Owner: SPXS Country: US Constellation: starlink
LEOCIRCULAR

Starlink 31346について

説明を読み込み中...

リアルタイム位置

3D地球を読み込み中...

次回通過

高度履歴

Altitude vs Time

uPlot chart will show altitude changes over time

軌道要素

1 58943U 24027N 25307.65708479 .00003131 00000-0 11773-3 0 9997
2 58943 53.1580 172.8074 0000952 86.6071 273.5038 15.30214283 98066
Epoch: Nov 3, 2025 • Age: 12 hours

現在のステータス

高度 477.0 km
速度 7.63 km/s
衛星直下点 -5.27°S, 102.49°W
打ち上げ日 Feb 10, 2024
運用期間 1.7 years
タイプ internet

技術仕様

分類 Payload
質量 730.00 kg
乾燥質量 700.00 kg
総質量 730.00 kg
長さ 0.30 m
直径 4.10 m
スパン 29.00 m
形状 Box + pan
製造者 SPXS
バスタイプ Starlink V2M
フェーズステータス In Orbit
所有者/国 SPXS/US

大規模コンステレーション

Loading constellations...